Location: B
(0.0000°N, 0.0000°E)
Time: 07:35:49
(UTC+02:00)

Amateur Radio Satellites - All Passes

Search period start: 23 July 2014 07:05
Search period end: 24 July 2014 07:05
Location: B, 0.0000°N, 0.0000°E

Satellite Date Start Highest point End Downlink Frequencies (MHz)
Time Altitude Azimuth
Hamsat 23 Jul 07:17:42 07:21:43 39° 102° (ESE) 07:25:47 145.90 MHz
AO-7 23 Jul 07:28:25 07:34:14 21° 287° (WNW) 07:40:05 29.400 - 29.500 MHz
KITSAT 1 23 Jul 07:50:59 07:59:02 70° 290° (WNW) 08:07:04 435.175 FM
JAS-2 23 Jul 08:08:39 08:14:07 79° 283° (WNW) 08:19:18 435.800 - 435.900 CW/SSB, 435.910 FM
STRAND 1 23 Jul 08:14:27 08:19:33 63° 77° (ENE) 08:24:37 ?
SO-67 23 Jul 09:12:08 09:15:19 35° 281° (W) 09:18:31 435.3500 MHz FM
Saudisat 1A 23 Jul 09:31:18 09:35:26 40° 292° (WNW) 09:39:33 436.775 MHz
HO-68 23 Jul 09:46:47 09:52:13 24° 105° (ESE) 09:57:39 435.675 MHz FM
MaSat-1 23 Jul 09:49:21 09:51:28 13° 69° (ENE) 09:53:30 437.345 MHz
Lituanica SAT-1 23 Jul 10:58:40 11:00:51 73° 54° (NE) 11:03:03 437.275 MHz beacon
MaSat-1 23 Jul 11:24:25 11:28:43 32° 255° (WSW) 11:32:35 437.345 MHz
Oscar 11 23 Jul 11:30:19 11:34:39 80° 282° (WNW) 11:39:00 145.825 FM, Beacon 2401.500 USB
HO-68 23 Jul 11:33:10 11:39:35 37° 285° (WNW) 11:46:03 435.675 MHz FM
FUNcube-1 23 Jul 11:33:44 11:37:20 28° 102° (ESE) 11:41:01 145.950 - 145.970 MHz USB
ISS 23 Jul 11:47:25 11:49:42 17° 54° (NE) 11:52:00 145.800 FM
SO-50 23 Jul 12:52:34 12:53:39 11° 113° (ESE) 12:54:44 436.795 FM
FUNcube-1 23 Jul 13:12:29 13:13:31 11° 281° (WNW) 13:14:33 145.950 - 145.970 MHz USB
ISS 23 Jul 13:24:19 13:26:14 15° 234° (SW) 13:28:11 145.800 FM
RS-15 23 Jul 13:43:27 13:54:27 46° 111° (ESE) 14:04:54 29.354 - 29.394 USB, Beacon 29.352 USB
Sapphire 23 Jul 13:44:03 13:49:06 41° 71° (ENE) 13:54:10 437.095 MHz 1200 baud AX-25 AFSK
PCSat 23 Jul 14:17:48 14:23:10 72° 251° (WSW) 14:28:33 145.825 MHz
SO-50 23 Jul 14:30:00 14:33:58 32° 292° (WNW) 14:37:55 436.795 FM
Oscar 19 23 Jul 14:45:13 14:49:52 35° 78° (ENE) 14:54:30 437.125 CW, 437.150 USB
Oscar 16 23 Jul 15:11:55 15:17:04 83° 78° (ENE) 15:22:11 437.025 USB, Beacon 2401.1428
ITAMSAT 1 23 Jul 15:19:44 15:24:28 35° 77° (ENE) 15:29:11 435.822 SSB
Gurwin Techsat 1B 23 Jul 15:26:11 15:28:12 12° 77° (ENE) 15:30:12 435.225 FM
UOSAT-12 23 Jul 15:26:16 15:30:25 39° 112° (ESE) 15:34:38 437.025 FM, 437.400 FM
Sapphire 23 Jul 15:30:00 15:32:17 13° 250° (WSW) 15:34:34 437.095 MHz 1200 baud AX-25 AFSK
AO-27 23 Jul 15:36:47 15:41:56 59° 77° (ENE) 15:47:04 436.795 MHz FM
Uribyol 2 23 Jul 15:40:23 15:45:36 70° 77° (ENE) 15:50:46 436.500 FM
AO-Echo 23 Jul 15:51:23 15:56:29 89° 258° (WSW) 16:01:42 ?
RS-15 23 Jul 15:56:45 16:06:20 31° 291° (WNW) 16:15:40 29.354 - 29.394 USB, Beacon 29.352 USB
JAS-1B 23 Jul 16:07:09 16:14:02 57° 75° (ENE) 16:22:13 435.800 - 435.900 CW/SSB
PANSAT 23 Jul 16:20:58 16:24:43 55° 30° (NNE) 16:28:30 not established
Oscar 19 23 Jul 16:26:32 16:28:55 13° 257° (WSW) 16:31:19 437.125 CW, 437.150 USB
TMSAT-1 23 Jul 16:42:23 16:47:42 75° 78° (ENE) 16:52:58 436.925 FM
OPAL 23 Jul 16:56:19 17:00:32 26° 105° (ESE) 17:04:48 ?
ITAMSAT 1 23 Jul 17:00:59 17:03:40 14° 257° (WSW) 17:06:22 435.822 SSB
Gurwin Techsat 1B 23 Jul 17:02:54 17:07:52 41° 257° (WSW) 17:12:51 435.225 FM
Uosat F 23 Jul 17:43:07 17:48:06 63° 77° (ENE) 17:53:05 435.120 FM
AO-7 23 Jul 17:59:53 18:08:14 80° 74° (ENE) 18:16:35 29.400 - 29.500 MHz
JAS-1B 23 Jul 18:00:51 18:04:40 15° 260° (W) 18:08:48 435.800 - 435.900 CW/SSB
PANSAT 23 Jul 18:01:59 18:04:52 20° 209° (SSW) 18:07:46 not established
KITSAT 1 23 Jul 18:06:44 18:11:54 18° 69° (ENE) 18:17:03 435.175 FM
OPAL 23 Jul 18:35:33 18:39:09 19° 284° (WNW) 18:42:47 ?
Hamsat 23 Jul 19:25:08 19:29:13 49° 79° (E) 19:33:14 145.90 MHz
JAS-2 23 Jul 19:38:30 19:45:53 59° 77° (ENE) 19:53:34 435.800 - 435.900 CW/SSB, 435.910 FM
AO-7 23 Jul 19:58:10 20:00:32 11° 252° (WSW) 20:02:54 29.400 - 29.500 MHz
KITSAT 1 23 Jul 19:59:14 20:07:00 54° 250° (WSW) 20:14:48 435.175 FM
Saudisat 1A 23 Jul 20:00:03 20:02:16 14° 67° (ENE) 20:04:29 436.775 MHz
STRAND 1 23 Jul 20:47:22 20:52:16 50° 283° (WNW) 20:57:11 ?
SO-67 23 Jul 20:56:51 21:00:18 68° 259° (W) 21:03:44 435.3500 MHz FM
JAS-2 23 Jul 21:26:05 21:30:35 17° 257° (WSW) 21:35:14 435.800 - 435.900 CW/SSB, 435.910 FM
Saudisat 1A 23 Jul 21:37:59 21:41:36 25° 248° (WSW) 21:45:13 436.775 MHz
HO-68 23 Jul 21:38:59 21:43:53 20° 75° (ENE) 21:48:45 435.675 MHz FM
MaSat-1 23 Jul 23:18:10 23:20:32 21° 290° (WNW) 23:23:11 437.345 MHz
ISS 23 Jul 23:24:15 23:25:29 12° 126° (SE) 23:26:43 145.800 FM
HO-68 23 Jul 23:24:29 23:31:15 45° 255° (WSW) 23:38:00 435.675 MHz FM
Oscar 11 23 Jul 23:39:44 23:44:00 57° 258° (WSW) 23:48:13 145.825 FM, Beacon 2401.500 USB
FUNcube-1 23 Jul 23:44:11 23:48:30 42° 79° (ENE) 23:52:43 145.950 - 145.970 MHz USB
ISS 24 Jul 00:59:25 01:02:01 21° 306° (NW) 01:04:38 145.800 FM
SO-50 24 Jul 01:03:11 01:06:59 23° 68° (ENE) 01:10:48 436.795 FM
PCSat 24 Jul 01:12:09 01:16:22 23° 110° (ESE) 01:20:35 145.825 MHz
RS-15 24 Jul 01:25:04 01:35:18 38° 69° (ENE) 01:45:53 29.354 - 29.394 USB, Beacon 29.352 USB
Oscar 16 24 Jul 02:09:30 02:11:49 13° 103° (ESE) 02:14:07 437.025 USB, Beacon 2401.1428
Sapphire 24 Jul 02:20:11 02:25:30 62° 289° (WNW) 02:30:49 437.095 MHz 1200 baud AX-25 AFSK
Uribyol 2 24 Jul 02:40:07 02:41:18 11° 103° (ESE) 02:42:28 436.500 FM
SO-50 24 Jul 02:43:52 02:47:19 20° 248° (WSW) 02:50:47 436.795 FM
AO-Echo 24 Jul 02:46:05 02:47:35 11° 102° (ESE) 02:49:04 ?
PCSat 24 Jul 02:55:21 02:59:30 23° 290° (WNW) 03:03:40 145.825 MHz
Oscar 19 24 Jul 03:18:24 03:23:34 87° 283° (WNW) 03:28:47 437.125 CW, 437.150 USB
UOSAT-12 24 Jul 03:36:17 03:40:53 73° 68° (ENE) 03:45:24 437.025 FM, 437.400 FM
RS-15 24 Jul 03:36:54 03:47:15 39° 248° (WSW) 03:58:07 29.354 - 29.394 USB, Beacon 29.352 USB
TMSAT-1 24 Jul 03:43:45 03:46:11 13° 103° (ESE) 03:48:37 436.925 FM
Oscar 16 24 Jul 03:46:08 03:50:52 37° 282° (WNW) 03:55:38 437.025 USB, Beacon 2401.1428
ITAMSAT 1 24 Jul 03:54:22 03:59:31 86° 282° (WNW) 04:04:42 435.822 SSB
Gurwin Techsat 1B 24 Jul 04:01:52 04:06:40 36° 103° (ESE) 04:11:29 435.225 FM
PANSAT 24 Jul 04:08:29 04:12:19 59° 150° (SSE) 04:16:08 not established
AO-27 24 Jul 04:12:10 04:17:09 51° 283° (WNW) 04:22:10 436.795 MHz FM
Uribyol 2 24 Jul 04:15:37 04:20:28 43° 283° (WNW) 04:25:21 436.500 FM
JAS-1B 24 Jul 04:18:46 04:27:10 74° 103° (ESE) 04:34:09 435.800 - 435.900 CW/SSB
AO-Echo 24 Jul 04:21:39 04:26:08 36° 283° (WNW) 04:30:31 ?
AO-7 24 Jul 04:38:00 04:42:16 15° 107° (ESE) 04:46:31 29.400 - 29.500 MHz
TMSAT-1 24 Jul 05:20:58 05:25:48 38° 282° (WNW) 05:30:41 436.925 FM
OPAL 24 Jul 05:27:33 05:32:32 63° 76° (ENE) 05:37:25 ?
Gurwin Techsat 1B 24 Jul 05:43:38 05:46:21 14° 283° (WNW) 05:49:06 435.225 FM
PANSAT 24 Jul 05:49:38 05:52:28 19° 331° (NNW) 05:55:17 not established
Uosat F 24 Jul 06:12:58 06:17:50 54° 283° (WNW) 06:22:43 435.120 FM
KITSAT 1 24 Jul 06:13:41 06:19:59 25° 111° (ESE) 06:26:15 435.175 FM
JAS-1B 24 Jul 06:14:16 06:16:45 12° 289° (WNW) 06:19:08 435.800 - 435.900 CW/SSB
AO-7 24 Jul 06:26:26 06:34:37 66° 286° (WNW) 06:42:49 29.400 - 29.500 MHz
